Погода в Сасоне

Турция     38°20′21″N   41°24′16″E
темп.,
°C
ветер,
м/с
пор.,
м/с
влажн.,
%
обл.,
%
осадки,
мм/ч
давл.,
гПа
погр.,
м
20 апреля, вт
вт2000:00+18св3347100 0.0 101623
03:00+18св2245100 0.0 101512
06:00+18в2247100 0.0 101411
09:00+22вюв2235100 0.0 1014176
12:00+23юв2431100 0.1 1013917
15:00+24юв3535100 0.1 1012904
18:00+22вюв3245100 0.0 101124
21:00+20вюв224373 0.0 101212
21 апреля, ср
ср2100:00+18вюв1149100 0.0 101311
03:00+17всв224999 0.3 101211
06:00+17вюв115298 0.0 101311
09:00+22ююв2339100 0.0 1014439
12:00+24ю4731100 0.0 10131841
15:00+24юз6827100 0.0 10121841
18:00+20ююз224732 0.0 101340
21:00+17ююв1146100 0.0 101511
22 апреля, чт
чт2200:00+15зсз0046100 0.0 101511
03:00+13св005572 0.0 101510
06:00+13юв11495 0.0 101611
09:00+19ю233629 0.0 1016481
12:00+21ююз3526100 0.0 10151282
15:00+22юз492384 0.0 10142156
18:00+18юз22420 0.0 101453
21:00+14юз11430 0.0 101611
23 апреля, пт
пт2300:00+12юв11430 0.0 101610
03:00+11св22390 0.0 101610
06:00+11ссв32400 0.0 101615
09:00+17зюз11280 0.0 1016754
12:00+20юз43310 0.0 10161494
15:00+21юз33260 0.0 10151744
18:00+18юз24470 0.0 1015106
21:00+14св224899 0.0 101711
24 апреля, сб
сб2400:00+14ссв22453 0.0 101711
03:00+13св33430 0.0 101613
06:00+13ссв3343100 0.0 101726
09:00+19ю11310 0.0 1016584
12:00+23ююз32265 0.0 10151256
15:00+23юз32275 0.0 10131248
18:00+21ююз11415 0.0 101315
21:00+16св11420 0.0 101411